This is the latest recevied weather packets stored in our database for station/object DB0OHA-13. If no packets are shown the sender has not sent any weather packets the latest 1 day(s).
| Time | Temp. | Humidity | Pressure | Rain* | Wind** | Luminosity | Snow |
|---|---|---|---|---|---|---|---|
| 1778053270 | 11.67° C | 1% | 1003.7 hPa | 0.76 mm | - | 144 W/m² | - |
| 1778052670 | 11.67° C | 1% | 1003.7 hPa | 0.51 mm | - | 104 W/m² | - |
| 1778052070 | 11.67° C | 1% | 1003.7 hPa | 0.51 mm | - | 83 W/m² | - |
| 1778050270 | 11.11° C | 1% | 1003.7 hPa | 0.25 mm | - | 99 W/m² | - |
| 1778046074 | 11.11° C | 1% | 1003.6 hPa | 0 mm | - | 32 W/m² | - |
| 1778044874 | 11.11° C | 1% | 1003.5 hPa | 0.25 mm | - | 28 W/m² | - |
| 1778043073 | 11.11° C | 1% | 1003.8 hPa | 0.25 mm | - | 10 W/m² | - |
| 1778042473 | 11.11° C | 1% | 1003.9 hPa | 0.25 mm | - | 7 W/m² | - |
| 1778041873 | 11.11° C | 1% | 1003.9 hPa | 0.51 mm | - | 7 W/m² | - |
| 1778040673 | 11.11° C | 1% | 1003.9 hPa | 1.27 mm | - | 0 W/m² | - |
| 1778038873 | 11.11° C | 1% | 1003.9 hPa | 3.56 mm | - | 0 W/m² | - |
| 1778038272 | 11.11° C | 1% | 1003.9 hPa | 3.56 mm | - | 0 W/m² | - |
| 1778037672 | 11.11° C | 1% | 1003.9 hPa | 4.32 mm | - | 0 W/m² | - |
| 1778037072 | 11.11° C | 1% | 1004.1 hPa | 4.32 mm | - | 0 W/m² | - |
| 1778035872 | 11.11° C | 1% | 1004.4 hPa | 4.32 mm | - | 0 W/m² | - |
| 1778035272 | 11.11° C | 1% | 1004.5 hPa | 4.06 mm | - | 0 W/m² | - |
| 1778034672 | 11.67° C | 1% | 1004.6 hPa | 5.33 mm | - | 0 W/m² | - |
| 1778034072 | 11.67° C | 1% | 1004.7 hPa | 5.84 mm | - | 0 W/m² | - |
| 1778033471 | 11.67° C | 1% | 1004.7 hPa | 5.59 mm | - | 0 W/m² | - |
| 1778031671 | 11.67° C | 1% | 1004.8 hPa | 5.08 mm | - | 0 W/m² | - |
| 1778031071 | 11.67° C | 1% | 1004.9 hPa | 4.06 mm | - | 0 W/m² | - |
| 1778030471 | 11.67° C | 1% | 1004.8 hPa | 3.3 mm | - | 0 W/m² | - |
| 1778029871 | 11.67° C | 1% | 1004.9 hPa | 3.56 mm | - | 0 W/m² | - |
| 1778029271 | 11.67° C | 1% | 1004.9 hPa | 3.56 mm | - | 0 W/m² | - |
| 1778028071 | 12.22° C | 1% | 1005.2 hPa | 3.56 mm | - | 0 W/m² | - |
* Rain latest hour (hover to see other rain measurements)
** Current wind speed in m/s (hover to see current wind gust speed)